QPF
0.00 0.00 0.00 0.00 0.00 0.00 0.00 0.00 0.00 0.00 0.00 0.00 0.00 0.00 0.00 0.00 0.00 0.00 0.00 0.00 0.00 0.00 0.00 0.00 0.00 0.00 0.00 0.00 0.00 0.00 0.00 0.00 0.00 0.00 0.00 0.00 0.00 0.00 0.00 0.00 0.00 0.00 0.06 0.09
0.00 0.00 0.00 0.00 0.00 0.00 0.00 0.00 0.00 0.00 0.00 0.00 0.00 0.00 0.00 0.00 0.02 0.00 0.00 0.00 0.00 0.00 0.00 0.00 0.00 0.00 0.00 0.00 0.00 0.00 0.00 0.00 0.00 0.00 0.00 0.00 0.00 0.00 0.00 0.00 0.00 0.01 0.04 0.06
0.00 0.00 0.00 0.00 0.00 0.00 0.00 0.00 0.00 0.00 0.00 0.00 0.00 0.00 0.00 0.00 0.00 0.00 0.00 0.00 0.00 0.00 0.00 0.00 0.00 0.00 0.00 0.00 0.00 0.00 0.00 0.00 0.00 0.00 0.00 0.00 0.00 0.00 0.00 0.00 0.00 0.00 0.05 0.03
0.00 0.00 0.00 0.00 0.00 0.00 0.00 0.00 0.00 0.00 0.00 0.00 0.00 0.00 0.00 0.00 0.00 0.00 0.00 0.00 0.00 0.00 0.00 0.00 0.00 0.00 0.00 0.00 0.00 0.00 0.00 0.00 0.00 0.00 0.00 0.00 0.00 0.00 0.00 0.00 0.01 0.00 0.03 0.05
0.00 0.00 0.00 0.00 0.00 0.00 0.00 0.00 0.00 0.00 0.00 0.00 0.00 0.00 0.00 0.00 0.00 0.00 0.00 0.00 0.00 0.00 0.00 0.00 0.00 0.01 0.02 0.00 0.00 0.00 0.00 0.00 0.00 0.00 0.00 0.00 0.00 0.00 0.00 0.00 0.00 0.01 0.03 0.01
0.00 0.00 0.00 0.00 0.00 0.00 0.00 0.00 0.00 0.00 0.00 0.00 0.00 0.00 0.00 0.00 0.00 0.00 0.01 0.01 0.01 0.00 0.00 0.00 0.00 0.00 0.00 0.00 0.00 0.00 0.00 0.00 0.00 0.00 0.00 0.00 0.00 0.00 0.00 0.00 0.00 0.00 0.01 0.01
0.00 0.00 0.00 0.00 0.00 0.00 0.00 0.00 0.00 0.00 0.00 0.00 0.00 0.00 0.00 0.00 0.00 0.00 0.00 0.00 0.00 0.02 0.04 0.02 0.00 0.00 0.00 0.00 0.00 0.00 0.00 0.00 0.00 0.00 0.00 0.00 0.00 0.00 0.00 0.00 0.00 0.00 0.00 0.00
0.00 0.00 0.00 0.00 0.00 0.00 0.00 0.00 0.00 0.00 0.00 0.00 0.00 0.00 0.00 0.00 0.00 0.00 0.00 0.00 0.00 0.01 0.00 0.00 0.00 0.00 0.00 0.00 0.00 0.00 0.00 0.00 0.00 0.00 0.00 0.00 0.00 0.00 0.00 0.00 0.00 0.00 0.00 0.00
0.00 0.00 0.00 0.00 0.00 0.00 0.00 0.00 0.00 0.00 0.00 0.00 0.00 0.00 0.00 0.00 0.00 0.00 0.00 0.00 0.00 0.00 0.00 0.00 0.00 0.00 0.00 0.00 0.00 0.00 0.00 0.00 0.00 0.00 0.00 0.00 0.00 0.00 0.00 0.00 0.00 0.00 0.00 0.00
0.00 0.00 0.00 0.00 0.00 0.00 0.00 0.00 0.00 0.00 0.00 0.00 0.00 0.00 0.00 0.00 0.00 0.00 0.00 0.00 0.00 0.00 0.00 0.00 0.00 0.00 0.00 0.00 0.00 0.00 0.00 0.00 0.00 0.00 0.00 0.00 0.00 0.00 0.00 0.00 0.00 0.00 0.00 0.00
0.00 0.00 0.00 0.00 0.00 0.00 0.00 0.00 0.00 0.00 0.00 0.00 0.00 0.00 0.00 0.00 0.00 0.00 0.00 0.00 0.00 0.00 0.00 0.00 0.00 0.05 0.11 0.08 0.01 0.00 0.00 0.00 0.00 0.00 0.00 0.00 0.00 0.00 0.00 0.00 0.00 0.00 0.00 0.00
0.00 0.00 0.00 0.00 0.00 0.00 0.00 0.00 0.00 0.00 0.00 0.00 0.00 0.00 0.00 0.00 0.00 0.00 0.00 0.00 0.00 0.00 0.00 0.00 0.00 0.00 0.03 0.04 0.04 0.01 0.01 0.00 0.00 0.00 0.00 0.00 0.00 0.00 0.00 0.00 0.00 0.00 0.00 0.00
0.00 0.00 0.00 0.00 0.00 0.00 0.00 0.00 0.00 0.00 0.00 0.00 0.00 0.00 0.00 0.00 0.00 0.00 0.00 0.00 0.00 0.00 0.00 0.00 0.00 0.02 0.01 0.03 0.05 0.04 0.03 0.01 0.01 0.01 0.00 0.00 0.00 0.00 0.00 0.00 0.00 0.00 0.00 0.00
0.00 0.00 0.00 0.00 0.00 0.00 0.00 0.00 0.00 0.00 0.00 0.00 0.00 0.00 0.00 0.00 0.00 0.00 0.00 0.00 0.00 0.00 0.00 0.00 0.01 0.01 0.03 0.06 0.07 0.05 0.05 0.04 0.03 0.00 0.00 0.00 0.00 0.00 0.00 0.00 0.00 0.00 0.00 0.00
0.00 0.00 0.00 0.00 0.00 0.00 0.00 0.00 0.00 0.00 0.00 0.00 0.00 0.00 0.00 0.00 0.00 0.00 0.00 0.00 0.00 0.00 0.00 0.00 0.01 0.03 0.05 0.09 0.10 0.06 0.06 0.04 0.04 0.02 0.00 0.00 0.00 0.00 0.00 0.00 0.00 0.00 0.00 0.00
0.00 0.00 0.00 0.00 0.00 0.00 0.00 0.00 0.00 0.00 0.00 0.00 0.00 0.00 0.00 0.00 0.00 0.00 0.00 0.00 0.00 0.00 0.00 0.00 0.00 0.01 0.05 0.07 0.05 0.03 0.06 0.07 0.05 0.03 0.06 0.05 0.00 0.00 0.00 0.00 0.00 0.00 0.00 0.00
0.00 0.00 0.00 0.00 0.00 0.00 0.00 0.00 0.00 0.00 0.00 0.00 0.00 0.00 0.00 0.00 0.00 0.00 0.00 0.00 0.00 0.00 0.00 0.00 0.00 0.00 0.01 0.02 0.03 0.02 0.03 0.07 0.08 0.10 0.12 0.15 0.12 0.04 0.00 0.00 0.00 0.00 0.00 0.00
0.00 0.00 0.00 0.00 0.00 0.00 0.00 0.00 0.00 0.00 0.00 0.00 0.00 0.00 0.00 0.00 0.00 0.00 0.00 0.00 0.00 0.00 0.00 0.00 0.00 0.00 0.00 0.00 0.01 0.01 0.00 0.01 0.01 0.03 0.04 0.04 0.10 0.12 0.06 0.00 0.00 0.00 0.00 0.00
0.00 0.00 0.00 0.00 0.00 0.00 0.00 0.00 0.00 0.00 0.00 0.00 0.00 0.00 0.00 0.00 0.00 0.00 0.00 0.00 0.00 0.00 0.00 0.00 0.00 0.00 0.00 0.00 0.00 0.00 0.00 0.00 0.00 0.00 0.00 0.00 0.01 0.04 0.08 0.05 0.02 0.00 0.00 0.00
0.00 0.00 0.00 0.00 0.00 0.00 0.00 0.00 0.00 0.00 0.00 0.00 0.00 0.00 0.00 0.00 0.00 0.00 0.00 0.00 0.00 0.00 0.00 0.00 0.00 0.00 0.00 0.00 0.00 0.00 0.00 0.00 0.01 0.03 0.02 0.02 0.02 0.04 0.12 0.16 0.12 0.05 0.00 0.00
0.00 0.00 0.00 0.00 0.00 0.00 0.00 0.00 0.00 0.00 0.00 0.00 0.00 0.00 0.00 0.00 0.00 0.00 0.00 0.00 0.00 0.00 0.00 0.00 0.00 0.00 0.00 0.00 0.00 0.00 0.00 0.00 0.00 0.01 0.03 0.06 0.06 0.06 0.04 0.06 0.06 0.02 0.01 0.00
0.00 0.00 0.00 0.00 0.00 0.00 0.00 0.00 0.00 0.00 0.00 0.00 0.00 0.00 0.00 0.00 0.00 0.00 0.00 0.00 0.00 0.00 0.00 0.00 0.00 0.00 0.00 0.00 0.00 0.00 0.00 0.00 0.00 0.00 0.00 0.01 0.03 0.03 0.03 0.03 0.03 0.01 0.03 0.01
0.00 0.00 0.00 0.00 0.00 0.00 0.00 0.00 0.00 0.00 0.00 0.00 0.00 0.00 0.00 0.00 0.00 0.00 0.00 0.00 0.00 0.00 0.00 0.00 0.00 0.00 0.00 0.00 0.00 0.00 0.00 0.00 0.00 0.00 0.00 0.00 0.00 0.00 0.00 0.00 0.01 0.00 0.02 0.01
0.00 0.00 0.00 0.00 0.00 0.00 0.00 0.00 0.00 0.00 0.00 0.00 0.00 0.00 0.00 0.00 0.00 0.00 0.00 0.00 0.00 0.00 0.00 0.00 0.00 0.00 0.00 0.00 0.00 0.00 0.00 0.00 0.00 0.00 0.00 0.00 0.01 0.02 0.01 0.00 0.00 0.00 0.00 0.01
0.00 0.00 0.00 0.00 0.00 0.00 0.00 0.00 0.00 0.00 0.00 0.00 0.00 0.00 0.00 0.00 0.00 0.00 0.00 0.00 0.00 0.00 0.00 0.00 0.00 0.00 0.00 0.00 0.00 0.00 0.00 0.00 0.00 0.00 0.00 0.00 0.00 0.04 0.03 0.02 0.01 0.00 0.00 0.00
0.00 0.00 0.00 0.00 0.00 0.00 0.00 0.00 0.00 0.00 0.00 0.00 0.00 0.00 0.00 0.00 0.00 0.00 0.00 0.00 0.00 0.00 0.00 0.00 0.00 0.00 0.00 0.00 0.00 0.00 0.00 0.00 0.00 0.00 0.00 0.00 0.00 0.00 0.03 0.04 0.04 0.03 0.01 0.03
MSLP
1010.16 1010.74 1010.71 1010.82 1010.68 1010.34 1010.30 1010.54 1010.47 1010.14 1009.92 1010.35 1010.69 1010.86 1011.25 1011.32 1011.51 1011.52 1011.69 1012.00 1012.36 1012.63 1013.09 1013.75 1014.23 1014.71 1015.45 1016.17 1016.66 1016.97 1017.34 1017.55 1018.03 1018.47 1018.87 1019.20 1019.23 1019.42 1019.54 1019.73 1020.03 1020.19 1020.57 1020.78
1010.45 1010.35 1010.07 1010.09 1010.24 1010.34 1010.39 1010.48 1010.45 1010.16 1010.01 1010.38 1010.37 1010.99 1011.17 1011.37 1011.54 1011.64 1011.79 1011.92 1012.31 1012.68 1013.13 1013.53 1014.06 1014.69 1015.23 1015.69 1016.21 1016.73 1017.13 1017.31 1017.74 1018.15 1018.33 1018.46 1018.85 1019.25 1019.43 1019.66 1019.97 1020.09 1020.12 1020.37
1009.84 1009.52 1009.43 1009.65 1009.80 1010.13 1010.45 1010.57 1010.53 1010.45 1010.39 1010.53 1010.86 1011.37 1011.68 1011.88 1011.69 1011.67 1011.79 1012.13 1012.35 1012.51 1012.82 1013.24 1013.74 1014.33 1014.84 1015.49 1015.93 1016.37 1016.69 1017.00 1017.53 1017.93 1018.36 1018.51 1018.79 1019.33 1019.72 1019.91 1020.05 1020.05 1020.26 1020.31
1009.37 1009.05 1009.10 1009.31 1009.55 1009.87 1010.28 1010.11 1010.38 1010.73 1011.15 1011.31 1011.29 1011.99 1012.02 1012.10 1012.12 1011.91 1011.97 1012.08 1012.15 1012.29 1012.53 1012.85 1013.41 1013.97 1014.38 1014.77 1015.34 1015.89 1016.57 1016.81 1017.33 1017.97 1018.20 1018.33 1018.67 1019.26 1019.51 1019.64 1019.83 1019.87 1020.11 1020.44
1009.23 1008.97 1009.05 1009.20 1009.23 1009.53 1009.89 1009.97 1010.60 1011.07 1011.59 1012.01 1011.98 1012.53 1012.20 1012.36 1012.25 1011.71 1011.88 1011.91 1011.85 1011.83 1011.94 1012.16 1012.51 1013.07 1013.67 1014.42 1014.96 1015.42 1016.26 1016.90 1017.04 1017.76 1018.18 1018.29 1018.69 1018.99 1019.21 1019.51 1019.73 1020.02 1020.11 1020.29
1009.39 1009.01 1009.13 1009.09 1008.85 1009.11 1009.61 1010.63 1011.51 1012.27 1012.80 1013.19 1012.71 1012.97 1013.73 1013.73 1013.70 1012.60 1012.17 1011.95 1011.64 1011.25 1011.25 1011.35 1011.82 1012.53 1013.29 1013.90 1014.53 1015.30 1016.02 1016.62 1016.81 1017.31 1017.93 1018.17 1018.45 1018.91 1019.25 1019.50 1019.75 1019.99 1020.25 1020.34
1010.54 1010.44 1010.00 1009.71 1009.51 1009.59 1010.23 1011.60 1013.11 1014.09 1014.22 1014.28 1013.42 1013.53 1014.43 1014.12 1013.93 1013.52 1012.65 1011.69 1010.79 1010.80 1011.17 1011.21 1011.21 1011.75 1012.53 1013.26 1014.03 1014.78 1015.52 1016.22 1016.77 1016.96 1017.52 1017.91 1018.05 1018.47 1018.91 1019.21 1019.52 1019.88 1020.18 1020.35
1012.52 1012.03 1011.40 1010.95 1010.91 1010.93 1011.29 1011.91 1013.13 1014.14 1015.03 1014.70 1014.15 1014.03 1014.24 1014.22 1014.12 1013.71 1013.04 1012.15 1010.69 1009.75 1009.69 1010.08 1010.42 1010.94 1011.71 1012.48 1013.37 1014.10 1014.95 1015.65 1016.25 1016.82 1017.12 1017.48 1017.79 1018.11 1018.39 1018.78 1019.14 1019.42 1019.68 1019.83
1013.90 1013.54 1012.63 1012.24 1012.09 1012.09 1012.31 1013.01 1013.68 1014.70 1015.67 1015.26 1014.92 1014.34 1014.23 1013.91 1013.81 1013.33 1012.90 1012.26 1011.22 1009.63 1008.81 1009.05 1009.53 1010.21 1011.08 1011.92 1012.67 1013.36 1014.13 1014.87 1015.64 1016.05 1016.69 1017.28 1017.62 1017.83 1018.06 1018.38 1018.75 1018.94 1019.18 1019.43
1014.97 1014.89 1014.26 1013.64 1013.05 1013.17 1013.42 1014.48 1014.93 1015.43 1016.58 1016.63 1016.40 1015.91 1015.69 1014.85 1014.59 1014.15 1013.34 1012.67 1011.44 1009.45 1009.05 1009.37 1009.65 1009.95 1010.43 1011.24 1012.20 1013.01 1013.63 1014.00 1014.49 1015.34 1015.83 1016.39 1017.02 1017.39 1017.64 1018.09 1018.50 1018.73 1018.77 1019.05
1015.54 1015.75 1016.03 1015.29 1016.70 1016.39 1015.55 1016.01 1016.57 1016.78 1017.13 1017.21 1017.55 1017.47 1016.59 1016.37 1016.11 1015.72 1015.12 1014.13 1012.89 1011.63 1010.89 1010.22 1010.10 1010.52 1011.13 1011.55 1011.91 1012.68 1013.20 1013.62 1014.24 1014.79 1015.34 1015.89 1016.49 1017.01 1017.24 1017.51 1017.84 1018.27 1018.57 1018.72
1016.70 1017.57 1018.51 1018.50 1018.09 1017.74 1017.60 1017.88 1018.03 1018.00 1018.68 1018.27 1017.86 1018.52 1017.77 1017.27 1017.11 1016.75 1016.29 1015.46 1014.39 1013.55 1013.01 1012.49 1012.17 1011.86 1011.65 1011.72 1012.09 1012.53 1013.27 1013.57 1013.59 1014.22 1014.73 1015.20 1015.71 1016.35 1016.97 1017.20 1017.40 1017.61 1018.06 1018.35
1017.31 1018.95 1019.78 1019.85 1019.13 1018.62 1018.83 1018.68 1018.62 1018.84 1018.83 1019.27 1018.88 1019.11 1018.43 1018.15 1017.93 1017.67 1017.23 1016.56 1015.87 1015.02 1014.47 1014.03 1013.80 1013.77 1013.45 1013.03 1012.74 1012.70 1012.99 1013.35 1013.50 1014.09 1014.63 1015.07 1015.40 1015.98 1016.23 1016.52 1016.92 1017.29 1017.52 1017.89
1018.00 1020.36 1020.43 1020.35 1020.28 1020.11 1019.78 1019.30 1018.94 1019.18 1019.41 1019.89 1019.39 1019.07 1019.03 1019.11 1018.99 1018.67 1018.13 1017.68 1016.98 1016.43 1015.93 1015.65 1015.25 1015.17 1014.85 1014.41 1013.77 1013.46 1013.39 1013.50 1013.67 1013.77 1014.20 1014.61 1014.86 1014.99 1015.53 1015.97 1016.30 1016.67 1016.98 1017.38
1019.48 1021.45 1021.40 1021.29 1020.85 1020.40 1020.04 1019.66 1019.39 1019.49 1019.70 1019.72 1019.69 1019.62 1019.83 1019.97 1020.06 1019.99 1019.46 1018.78 1018.26 1017.62 1017.17 1017.03 1016.73 1016.39 1016.10 1015.63 1015.10 1014.51 1014.27 1014.09 1013.92 1013.85 1013.91 1013.88 1014.20 1014.67 1015.00 1015.38 1015.78 1016.21 1016.48 1016.69
1021.05 1022.27 1022.27 1022.40 1021.62 1020.93 1020.57 1020.06 1019.72 1019.96 1020.18 1020.24 1020.31 1020.54 1020.43 1020.69 1020.51 1020.53 1020.45 1019.96 1019.40 1019.09 1018.66 1018.21 1017.72 1017.33 1016.78 1016.35 1016.11 1015.50 1014.87 1014.25 1014.05 1013.89 1013.75 1013.85 1013.85 1014.22 1014.51 1014.81 1015.14 1015.52 1015.89 1016.21
1022.22 1023.00 1023.56 1023.52 1022.63 1021.85 1021.51 1020.85 1020.52 1020.78 1021.14 1021.18 1021.43 1021.59 1021.12 1021.05 1021.07 1021.14 1021.06 1020.80 1020.49 1020.08 1019.62 1019.16 1018.62 1018.26 1017.63 1016.96 1016.32 1016.15 1015.47 1014.75 1014.21 1014.02 1013.79 1013.92 1013.89 1013.89 1013.98 1014.23 1014.59 1014.81 1015.08 1015.43
1022.83 1023.61 1024.07 1024.43 1023.54 1022.97 1021.59 1021.15 1020.88 1021.37 1022.08 1022.17 1022.21 1022.25 1022.15 1022.07 1021.66 1021.59 1021.49 1021.29 1020.95 1020.61 1020.21 1019.69 1019.24 1018.63 1018.25 1017.46 1016.91 1016.34 1016.02 1015.48 1014.99 1014.50 1013.76 1013.83 1013.89 1013.79 1013.75 1013.81 1013.93 1014.08 1014.44 1014.74
1022.71 1023.58 1024.94 1024.93 1024.27 1023.25 1022.11 1021.64 1021.75 1022.00 1023.06 1023.23 1023.30 1023.29 1023.09 1022.68 1021.69 1021.77 1022.00 1021.80 1021.53 1021.12 1020.70 1020.20 1019.43 1018.97 1018.43 1017.77 1017.44 1016.78 1016.39 1016.05 1015.44 1015.31 1014.72 1014.51 1014.03 1013.65 1013.47 1013.32 1013.31 1013.35 1013.79 1014.12
1023.55 1023.75 1024.42 1025.27 1024.61 1023.35 1022.04 1022.01 1022.20 1022.58 1023.53 1023.75 1023.86 1024.10 1024.01 1023.53 1023.10 1022.64 1022.42 1022.30 1021.81 1021.26 1020.89 1020.36 1019.73 1018.92 1018.41 1018.02 1017.28 1017.24 1016.51 1016.49 1015.84 1015.48 1015.35 1015.14 1014.53 1014.09 1013.38 1012.88 1012.91 1013.01 1013.14 1013.23
1024.72 1025.28 1025.40 1025.40 1024.56 1023.05 1022.06 1022.17 1022.48 1023.43 1024.24 1024.08 1024.39 1024.59 1024.79 1024.79 1024.42 1023.57 1023.22 1022.65 1022.42 1021.69 1020.94 1020.47 1019.95 1019.43 1018.69 1018.25 1017.52 1017.39 1017.02 1016.30 1016.21 1015.50 1015.18 1014.91 1014.41 1014.27 1013.55 1013.38 1012.79 1012.74 1012.55 1012.36
1024.89 1025.32 1025.71 1025.75 1024.95 1023.41 1022.14 1022.51 1023.06 1023.66 1023.91 1024.37 1024.76 1024.93 1025.03 1025.06 1024.56 1024.06 1023.55 1022.93 1022.43 1021.87 1021.33 1020.73 1020.05 1019.54 1019.16 1018.43 1017.65 1017.22 1017.01 1016.47 1015.73 1014.90 1014.83 1014.66 1014.65 1014.31 1013.44 1012.71 1012.60 1012.43 1012.11 1011.66
1024.95 1024.39 1024.34 1024.51 1023.71 1022.59 1022.31 1022.40 1022.86 1023.34 1023.83 1024.29 1024.57 1024.73 1024.82 1024.77 1024.58 1024.07 1023.33 1022.91 1022.36 1021.94 1021.50 1021.08 1020.41 1019.46 1018.90 1018.56 1017.94 1017.45 1016.74 1016.53 1015.83 1015.48 1014.83 1014.83 1014.49 1014.30 1013.29 1012.74 1011.83 1012.38 1011.61 1010.93
1023.92 1023.84 1024.12 1024.12 1023.41 1022.89 1022.65 1022.76 1022.97 1023.26 1023.58 1023.92 1024.21 1024.34 1024.43 1024.29 1023.74 1023.35 1022.94 1022.37 1021.97 1021.61 1021.29 1020.95 1020.33 1019.53 1018.39 1018.37 1017.83 1017.37 1016.75 1016.51 1015.79 1014.94 1015.03 1014.99 1014.53 1014.33 1013.60 1012.51 1011.67 1011.04 1010.57 1010.00
1023.09 1023.46 1023.56 1023.54 1022.91 1022.95 1022.75 1022.66 1022.63 1023.00 1023.25 1023.55 1023.91 1024.06 1023.95 1023.77 1023.25 1022.85 1022.29 1021.86 1021.36 1020.94 1020.62 1020.38 1019.98 1019.35 1018.35 1017.81 1017.31 1017.06 1016.69 1016.41 1015.51 1014.81 1014.45 1014.24 1014.03 1013.71 1012.13 1011.20 1010.98 1010.93 1009.96 1009.06
1022.15 1021.97 1022.48 1022.11 1021.51 1021.67 1021.77 1021.77 1022.17 1022.70 1022.86 1022.95 1023.25 1023.27 1023.15 1022.97 1022.54 1022.05 1021.41 1021.06 1020.62 1020.03 1019.65 1019.37 1019.13 1018.74 1017.91 1017.41 1016.67 1015.92 1015.87 1016.12 1015.65 1014.81 1014.21 1014.36 1014.13 1013.44 1011.82 1011.07 1009.73 1009.29 1008.69 1007.71
Thickness
5724 5710 5706 5717 5724 5732 5736 5729 5730 5744 5762 5758 5754 5757 5760 5769 5773 5774 5778 5778 5777 5777 5781 5780 5779 5779 5777 5776 5775 5774 5774 5775 5771 5769 5767 5768 5768 5767 5765 5763 5762 5761 5758 5757
5707 5702 5721 5730 5727 5727 5728 5724 5725 5740 5756 5754 5755 5753 5765 5769 5771 5774 5775 5778 5777 5777 5776 5777 5776 5777 5776 5776 5778 5776 5776 5777 5774 5774 5775 5776 5774 5771 5770 5767 5765 5764 5764 5762
5702 5719 5729 5727 5725 5722 5720 5716 5720 5727 5742 5754 5753 5746 5754 5764 5774 5777 5777 5778 5778 5778 5775 5774 5775 5775 5777 5775 5778 5778 5780 5779 5776 5777 5776 5776 5776 5771 5770 5768 5767 5767 5765 5764
5710 5725 5724 5722 5721 5722 5710 5729 5730 5729 5725 5713 5749 5714 5744 5755 5760 5770 5771 5772 5775 5776 5779 5776 5775 5774 5776 5778 5780 5781 5779 5780 5777 5776 5776 5777 5775 5771 5772 5772 5771 5770 5768 5765
5701 5711 5713 5713 5720 5727 5717 5729 5724 5724 5720 5719 5730 5718 5736 5752 5754 5766 5769 5770 5774 5778 5779 5779 5779 5779 5780 5781 5780 5781 5780 5778 5781 5777 5776 5778 5776 5776 5777 5776 5773 5772 5771 5768
5701 5719 5715 5717 5730 5730 5733 5718 5705 5698 5694 5688 5720 5719 5711 5724 5731 5748 5762 5764 5770 5778 5783 5786 5787 5784 5781 5783 5782 5781 5780 5778 5781 5780 5778 5778 5778 5776 5775 5776 5774 5773 5771 5769
5679 5687 5699 5710 5714 5721 5713 5696 5663 5670 5670 5676 5695 5706 5707 5725 5735 5741 5750 5765 5778 5778 5777 5780 5786 5788 5787 5785 5784 5784 5783 5779 5779 5781 5781 5779 5781 5779 5777 5777 5777 5774 5771 5769
5646 5650 5674 5694 5694 5697 5701 5696 5668 5667 5652 5679 5695 5691 5708 5725 5733 5740 5750 5760 5777 5791 5793 5788 5790 5791 5790 5789 5785 5785 5784 5782 5781 5780 5780 5781 5781 5783 5782 5780 5779 5779 5776 5774
5639 5645 5668 5680 5683 5689 5691 5673 5690 5666 5665 5673 5682 5700 5717 5727 5728 5737 5743 5752 5763 5786 5801 5800 5797 5796 5792 5789 5790 5788 5785 5785 5783 5783 5781 5779 5779 5780 5782 5782 5782 5783 5782 5778
5635 5633 5651 5660 5674 5676 5673 5675 5668 5663 5656 5667 5663 5670 5675 5704 5713 5725 5736 5746 5760 5783 5794 5795 5795 5795 5796 5793 5789 5788 5786 5786 5787 5785 5786 5784 5782 5782 5782 5781 5781 5783 5784 5782
5632 5628 5637 5642 5625 5627 5644 5641 5645 5651 5650 5648 5640 5652 5685 5692 5701 5708 5719 5734 5748 5762 5772 5785 5788 5787 5784 5786 5788 5786 5786 5785 5784 5786 5786 5785 5784 5783 5783 5785 5784 5783 5784 5784
5620 5603 5594 5609 5621 5629 5632 5632 5626 5640 5647 5633 5642 5644 5669 5680 5689 5700 5706 5719 5733 5744 5752 5759 5766 5773 5779 5779 5778 5781 5780 5781 5786 5785 5784 5785 5785 5785 5783 5784 5785 5786 5783 5782
5615 5581 5579 5596 5605 5615 5613 5623 5626 5617 5620 5621 5635 5637 5663 5670 5677 5685 5693 5705 5714 5725 5734 5743 5747 5752 5760 5768 5770 5774 5776 5778 5780 5779 5779 5780 5782 5781 5784 5785 5784 5785 5786 5783
5601 5561 5579 5577 5590 5592 5603 5614 5623 5616 5614 5612 5625 5641 5647 5651 5659 5668 5679 5691 5700 5707 5716 5722 5730 5734 5742 5749 5760 5766 5769 5771 5773 5776 5777 5777 5780 5784 5784 5784 5783 5783 5785 5784
5584 5568 5575 5577 5585 5593 5599 5605 5612 5618 5615 5619 5622 5632 5629 5636 5640 5647 5659 5673 5681 5689 5699 5703 5710 5717 5724 5733 5741 5751 5756 5762 5766 5769 5773 5778 5780 5779 5781 5782 5782 5782 5783 5785
5559 5557 5571 5568 5576 5582 5588 5596 5606 5607 5605 5613 5609 5608 5623 5626 5631 5634 5640 5651 5662 5669 5677 5686 5693 5701 5710 5718 5726 5734 5742 5751 5758 5763 5768 5771 5774 5776 5778 5780 5781 5781 5782 5783
5547 5537 5537 5552 5557 5570 5569 5582 5591 5589 5587 5593 5594 5597 5611 5616 5616 5617 5625 5633 5642 5651 5660 5668 5677 5683 5694 5704 5714 5721 5730 5740 5752 5757 5763 5763 5766 5770 5775 5777 5777 5781 5782 5783
5537 5527 5515 5526 5542 5549 5565 5573 5583 5579 5576 5577 5581 5584 5589 5591 5604 5607 5611 5618 5626 5634 5644 5654 5662 5672 5679 5691 5700 5709 5716 5726 5734 5744 5755 5759 5761 5764 5768 5772 5776 5780 5781 5781
5529 5522 5508 5525 5521 5544 5556 5563 5563 5567 5560 5559 5561 5563 5569 5577 5593 5597 5597 5603 5610 5618 5626 5637 5651 5660 5669 5677 5685 5695 5701 5710 5719 5726 5735 5741 5751 5758 5762 5766 5771 5775 5776 5778
5520 5513 5516 5501 5534 5538 5550 5550 5552 5553 5550 5546 5548 5545 5546 5556 5567 5579 5577 5585 5597 5605 5611 5620 5634 5647 5656 5664 5676 5681 5689 5695 5704 5712 5718 5724 5735 5742 5752 5761 5763 5766 5771 5775
5482 5486 5498 5493 5505 5531 5542 5543 5541 5541 5542 5532 5532 5531 5530 5532 5541 5549 5556 5567 5576 5589 5599 5606 5615 5628 5641 5650 5661 5668 5675 5686 5689 5701 5708 5714 5724 5729 5741 5747 5756 5759 5765 5771
5502 5484 5474 5482 5507 5517 5533 5534 5538 5526 5521 5519 5517 5517 5515 5515 5523 5530 5536 5547 5558 5570 5581 5589 5601 5610 5622 5635 5645 5653 5662 5672 5683 5696 5701 5706 5711 5715 5729 5741 5746 5749 5757 5765
5491 5498 5492 5496 5502 5514 5518 5525 5514 5510 5510 5507 5505 5505 5504 5506 5509 5516 5523 5528 5538 5549 5561 5570 5582 5595 5606 5617 5629 5635 5650 5659 5670 5679 5691 5694 5698 5704 5716 5727 5736 5735 5749 5760
5507 5498 5492 5504 5507 5508 5510 5510 5509 5505 5503 5500 5495 5494 5493 5494 5501 5506 5513 5518 5522 5530 5540 5552 5566 5580 5593 5600 5612 5622 5633 5643 5656 5670 5677 5677 5684 5686 5699 5716 5728 5737 5745 5757
5501 5496 5490 5493 5500 5500 5501 5501 5503 5499 5496 5492 5487 5483 5483 5484 5489 5494 5504 5508 5512 5517 5523 5534 5547 5561 5577 5586 5599 5608 5618 5627 5643 5656 5665 5672 5680 5681 5702 5716 5723 5726 5741 5756
5493 5494 5488 5493 5506 5504 5504 5503 5495 5491 5490 5488 5485 5481 5478 5477 5480 5485 5494 5498 5502 5508 5512 5517 5530 5545 5561 5570 5585 5603 5610 5613 5627 5641 5652 5657 5665 5674 5694 5706 5721 5729 5736 5752